Regional Weather Roundup
Issued by NWS

Home | Current Version | Previous Version | Text Only | Print | Product List | Glossary Off
Versions: 1 2 3 4 5 6 7 8 9 10 11 12 13 14 15 16 17 18 19 20 21 22 23 24 25 26 27 28 29 30 31 32 33 34 35 36 37 38 39 40 41 42 43 44 45 46 47 48 49 50

000
ASUS45 KTFX 311810
RWRMT
MONTANA REGIONAL WEATHER ROUNDUP
NATIONAL WEATHER SERVICE GREAT FALLS MT
1200 PM MDT FRI JUL 31 2015

NOTE: "FAIR" INDICATES FEW OR NO CLOUDS BELOW 12000 FEET WITH NO
SIGNIFICANT WEATHER AND/OR OBSTRUCTIONS TO VISIBILITY.

MTZ001>007-043-311900-
WEST OF THE DIVIDE

CITY           SKY/WX    TMP DP  RH WIND       PRES   REMARKS
KALISPELL      CLEAR     82  41  23 S7        30.17F
MISSOULA       SUNNY     74  42  31 CALM      30.24F
BUTTE          SUNNY     80  28  15 NW10      30.34F
MULLAN PASS    SUNNY     74  30  19 VRB3      30.37S
DEER LODGE       N/A     79  39  24 CALM      30.33F
EUREKA           N/A     82  39  21 SE5       30.14F
HAMILTON         N/A     75  45  33 VRB5      30.24F
LIBBY            N/A     81  37  21 N3        30.14F
PLAINS           N/A     83  40  21 SW1       30.15F
RONAN            N/A     82  45  27 W5        30.22F
THOMPSON FALLS   N/A     85  41  21 NE7       30.16F
$$

MTZ008-052>055-311900-
SOUTHWEST MONTANA

CITY           SKY/WX    TMP DP  RH WIND       PRES   REMARKS
BOZEMAN        SUNNY     82  45  27 CALM      30.28F
DILLON         SUNNY     78  41  26 VRB3      30.32F
W YELLOWSTONE  SUNNY     72  37  28 CALM      30.43F
THREE FORKS      N/A     79  54  41 E1        30.24F
TWIN BRIDGES     N/A     77  40  26 SE7       30.26F
$$

MTZ009-010-012-014-046-048-049-054-311900-
EAST SLOPES AND CENTRAL MONTANA

CITY           SKY/WX    TMP DP  RH WIND       PRES   REMARKS
CUT BANK       SUNNY     86  30  13 N12G21    30.18F
GREAT FALLS    SUNNY     84  38  19 VRB6      30.20S
MALMSTROM AFB  SUNNY     83  37  19 W5        30.19S
HELENA         SUNNY     79  44  28 VRB5      30.23F
CONRAD           N/A     87  40  19 NW2       30.19S
$$

MTZ011-013-016-021-045-047-050-051-311900-
NORTH CENTRAL MONTANA

CITY           SKY/WX    TMP DP  RH WIND       PRES   REMARKS
HAVRE          SUNNY     84  46  26 SW9       30.12F
LEWISTOWN      MOSUNNY   85  37  18 W8        30.22S
CHINOOK          N/A     82  50  32 W3        30.12S
$$

MTZ017>020-022>027-061-062-311900-
NORTHEAST MONTANA

CITY           SKY/WX    TMP DP  RH WIND       PRES   REMARKS
GLASGOW        SUNNY     87  45  23 SE9       30.12F
JORDAN           N/A     90  39  16 S6        30.11F
SIDNEY         SUNNY    N/A N/A N/A W6        30.13F
WOLF POINT     SUNNY     88  41  19 SW3       30.12F
MALTA            N/A     85  49  28 CALM      30.07F
PLENTYWOOD       N/A     79  48  34 N6        30.15F
POPLAR           N/A     84  45  24 CALM      30.13F
SCOBEY           N/A     81  48  31 N1        30.14F
$$

MTZ028>42-056>058-311900-
SOUTHCENTRAL AND SOUTHEAST MONTANA

CITY           SKY/WX    TMP DP  RH WIND       PRES   REMARKS
BAKER          SUNNY     88  41  19 SW8       30.20F
BILLINGS       MOSUNNY   82  45  27 VRB7      30.20F
LIVINGSTON     SUNNY     85  44  23 NW7       30.25F
MILES CITY     SUNNY     90  42  18 SE12      30.14F
EKALAKA          N/A     86  37  17 NE6       30.18F
FORSYTH          N/A     91  39  16 SE7       30.13F
LAUREL           N/A     84  43  23 SE2       30.17F
ROUNDUP          N/A     84  42  22 SW6       30.08F
$$

REGIONAL REPORTS...DAKOTAS

CITY           SKY/WX    TMP DP  RH WIND       PRES   REMARKS
WILLISTON      SUNNY     83  47  28 N8        30.14F
MINOT          SUNNY     80  50  34 W8        30.10F
DICKINSON      SUNNY     86  43  22 N8        30.16F
BEACH          FAIR      84  39  20 N7        30.18F
CROSBY         MOCLDY    75  52  43 N5        30.16S
BISMARCK       SUNNY     86  52  30 NW12G18   30.12F
GRAND FORKS    MOSUNNY   79  50  36 NW20G28   30.04F
FARGO          SUNNY     81  51  35 NW16G23   30.07F
BUFFALO SD       N/A     86  41  20 E9        30.14F
RAPID CITY     SUNNY     82  55  39 NE6       30.23F
$$

REGIONAL REPORTS...WYOMING/IDAHO/WASHINGTON

CITY           SKY/WX    TMP DP  RH WIND       PRES   REMARKS
GILLETTE       SUNNY     86  39  19 S5        30.24F
SHERIDAN       SUNNY     87  42  20 VRB3      30.23F
BUFFALO WY     SUNNY     84  36  18 MISG      30.29F
CODY           SUNNY     82  36  18 CALM      30.28F
YELLOWSTONE LA   N/A     63  43  48 VRB3      30.53S
IDAHO FALLS    SUNNY     81  39  22 NW3       30.31S
SALMON         SUNNY     75  45  33 CALM      30.26F
BOISE          SUNNY     89  35  14 CALM      30.17F
SPOKANE        MOSUNNY   87  42  20 NE5       30.12S
$$

REGIONAL REPORTS...ALBERTA

CITY           SKY/WX    TMP DP  RH WIND       PRES   REMARKS
EDMONTON       SUNNY     77  46  33 S16       30.05F
CALGARY        MOSUNNY   79  45  29 S10       30.12F
LETHBRIDGE     SUNNY     81  46  30 CALM      30.14F
MEDICINE HAT   SUNNY     82  48  30 W9        30.09F
WATERTON GATE    N/A     84  37  18 SW12G17     N/A
CARDSTON         N/A     86  41  20 E1          N/A
MILK RIVER       N/A     86  36  16 N8          N/A
ONEFOUR          N/A     79  46  31 W5          N/A
$$

REGIONAL REPORTS...SASKATCHEWAN

CITY           SKY/WX    TMP DP  RH WIND       PRES   REMARKS
SWIFT CURRENT  SUNNY     75  48  38 E9        30.15F
REGINA         MOSUNNY   77  50  38 W6        30.14F
SASKATOON      MOSUNNY   75  48  38 W5        30.14F
CYPRESS HILLS    N/A     75  48  38 S8          N/A
VAL MARIE        N/A     82  48  30 SE10        N/A
ROCKGLEN         N/A     79  45  29 N2          N/A
$$



USA.gov is the U.S. government's official web portal to all federal, state and local government web resources and services.